Change the Weather History Date:

Friday, November 16, 2012

  Actual Average (KEDW) Record (KEDW)
Temperature  
Mean Temperature 54 °F -  
Max Temperature 64 °F 63 °F 82 °F (2006)
Min Temperature 44 °F 35 °F 24 °F (2000)
Degree Days  
Heating Degree Days 11    
Growing Degree Days 4 (Base 50)    
Moisture  
Dew Point 39 °F    
Average Humidity 57    
Maximum Humidity 71    
Minimum Humidity 41    
Precipitation  
Precipitation 0.00 in - - ()
Sea Level Pressure  
Sea Level Pressure 30.06 in    
Wind  
Wind Speed 6 mph (SSW)    
Max Wind Speed 13 mph    
Max Gust Speed -    
Visibility 10 miles    
Events Rain    
Averages and records for this station are not official NWS values.
T = Trace of Precipitation, MM = Missing Value Source: NWS Daily Summary

Daily Weather History Graph

Daily Weather History Graph

Search for Another Location

Airport or City:

Trip Planner

Search our weather history database for the weather conditions in past years. The results will help you decide how hot, cold, wet, or windy it might be!

Date:

Astronomy

Nov. 16, 2012 Rise Set
Actual Time 6:27 AM PST 4:44 PM PST
Civil Twilight 6:00 AM PST 5:11 PM PST
Nautical Twilight 5:29 AM PST 5:42 PM PST
Astronomical Twilight 4:59 AM PST 6:12 PM PST
Moon 9:24 AM PST (11/16) 7:51 PM PST (11/16)
Length of Visible Light 11h 11m
Length of Day
10h 17m
Waxing Crescent, 12% of the Moon is Illuminated
Nov 16
Waxing Crescent
Nov 20
First Quarter
Nov 28
Full
Dec 6
Last Quarter
Dec 13
New

Hourly Weather History & Observations

Time (PST) Temp. Windchill Dew Point Humidity Pressure Visibility Wind Dir Wind Speed Gust Speed Precip Events Conditions
12:55 AM 48.9 °F - 36.0 °F 61% 30.09 in 10.0 mi SSE 5.8 mph - 0.00 in   Overcast
1:55 AM 48.0 °F - 36.0 °F 63% 30.08 in 10.0 mi Calm Calm - 0.00 in   Overcast
2:55 AM 48.0 °F - 35.1 °F 61% 30.06 in 10.0 mi SE 6.9 mph - N/A   Overcast
3:55 AM 44.1 °F 40.1 °F 34.0 °F 68% 30.06 in 10.0 mi South 6.9 mph - N/A   Partly Cloudy
4:55 AM 46.9 °F - 34.0 °F 61% 30.05 in 10.0 mi SSE 5.8 mph - N/A   Overcast
5:55 AM 45.0 °F 41.8 °F 36.0 °F 71% 30.09 in 10.0 mi SSW 5.8 mph - N/A   Mostly Cloudy
6:55 AM 46.9 °F - 36.0 °F 66% 30.09 in 10.0 mi South 4.6 mph - 0.00 in Rain Light Rain
7:55 AM 50.0 °F - 36.0 °F 59% 30.10 in 10.0 mi SE 3.5 mph - N/A   Mostly Cloudy
8:55 AM 52.0 °F - 34.0 °F 50% 30.12 in 10.0 mi ESE 3.5 mph - N/A   Overcast
9:55 AM 55.9 °F - 34.0 °F 44% 30.11 in 10.0 mi Calm Calm - N/A   Mostly Cloudy
10:55 AM 59.0 °F - 35.1 °F 41% 30.09 in 10.0 mi South 6.9 mph - N/A   Overcast
12:55 PM 62.1 °F - 41.0 °F 46% 30.05 in 10.0 mi WSW 6.9 mph - 0.00 in   Overcast
1:55 PM 64.9 °F - 41.0 °F 42% 30.02 in 10.0 mi South 5.8 mph - N/A   Overcast
2:55 PM 63.0 °F - 39.9 °F 43% 30.01 in 10.0 mi South 9.2 mph - N/A   Mostly Cloudy
3:55 PM 63.0 °F - 39.0 °F 41% 30.01 in 10.0 mi South 5.8 mph - N/A   Overcast
4:55 PM 62.1 °F - 37.9 °F 41% 30.01 in 10.0 mi West 6.9 mph - N/A   Overcast
5:55 PM 60.1 °F - 37.9 °F 44% 30.02 in 10.0 mi WSW 8.1 mph - 0.00 in   Overcast
6:55 PM 59.0 °F - 39.0 °F 48% 30.03 in 10.0 mi WSW 11.5 mph - N/A   Overcast
7:55 PM 57.9 °F - 41.0 °F 53% 30.04 in 10.0 mi West 12.7 mph - N/A   Overcast
8:55 PM 57.0 °F - 43.0 °F 59% 30.05 in 10.0 mi WNW 6.9 mph - N/A   Overcast
9:14 PM 55.4 °F - 44.6 °F 67% 30.05 in 10.0 mi WNW 6.9 mph - N/A   Overcast
9:22 PM 55.4 °F - 44.6 °F 67% 30.05 in 10.0 mi WNW 4.6 mph - N/A   Overcast
9:55 PM 55.9 °F - 44.1 °F 64% 30.05 in 10.0 mi WNW 3.5 mph - N/A   Overcast
10:55 PM 55.4 °F - 42.8 °F 63% 30.06 in 10.0 mi WSW 11.5 mph - N/A   Overcast
11:30 PM 53.6 °F - 42.8 °F 67% 30.06 in 10.0 mi West 8.1 mph - N/A   Scattered Clouds
11:45 PM 53.6 °F - 42.8 °F 67% 30.06 in 10.0 mi South 4.6 mph - N/A   Mostly Cloudy
11:55 PM 53.1 °F - 43.0 °F 69% 30.05 in 10.0 mi SW 4.6 mph - N/A   Mostly Cloudy